Wilmington, NC

7:42 PM EST on December 10, 2017 (GMT -0500)
Wilmington International

Weather History for KILM - March, 2013

Change the Weather History Date:

Sunday, March 24, 2013

  Actual Average Record
Temperature  
Mean Temperature 50 °F 57 °F  
Max Temperature 58 °F 69 °F 87 °F (1929)
Min Temperature 41 °F 46 °F 26 °F (1885)
Degree Days  
Heating Degree Days 15 8  
Month to date heating degree days 360 269  
Since 1 July heating degree days 2167 2198  
Cooling Degree Days 0 1  
Month to date cooling degree days 2 9  
Year to date cooling degree days 14 14  
Moisture  
Dew Point 47 °F    
Average Humidity 88    
Maximum Humidity 100    
Minimum Humidity 76    
Precipitation  
Precipitation 1.13 in 0.12 in 1.45 in (1979)
Month to date precipitation 2.36 3.30  
Year to date precipitation 9.63 10.68  
Snow  
Snow 0.00 in 0.00 in 2.90 in (1983)
Month to date snowfall 0.0 0.1  
Since 1 July snowfall T 1.6  
Snow Depth 0.00 in    
Sea Level Pressure  
Sea Level Pressure 29.66 in    
Wind  
Wind Speed 10 mph (NE)    
Max Wind Speed 31 mph    
Max Gust Speed 44 mph    
Visibility 5 miles    
Events Rain    
T = Trace of Precipitation, MM = Missing Value Source: NWS Daily Summary

Daily Weather History Graph

Daily Weather History Graph

Search for Another Location

Airport or City:

Trip Planner

Search our weather history database for the weather conditions in past years. The results will help you decide how hot, cold, wet, or windy it might be!

Date:

Astronomy

Mar. 24, 2013 Rise Set
Actual Time 7:09 AM EDT 7:26 PM EDT
Civil Twilight 6:44 AM EDT 7:51 PM EDT
Nautical Twilight 6:15 AM EDT 8:21 PM EDT
Astronomical Twilight 5:45 AM EDT 8:50 PM EDT
Moon 4:58 PM EDT (3/24) 5:12 AM EDT (3/24)
Length of Visible Light 13h 07m
Length of Day
12h 17m
Waxing Gibbous, 91% of the Moon is Illuminated
Mar 24
Waxing Gibbous
Mar 27
Full
Apr 3
Last Quarter
Apr 10
New
Apr 18
First Quarter

Hourly Weather History & Observations

Time (EDT) Temp. Windchill Dew Point Humidity Pressure Visibility Wind Dir Wind Speed Gust Speed Precip Events Conditions
12:53 AM 42.1 °F - 39.0 °F 89% 29.91 in 6.0 mi Calm Calm - N/A   Clear
1:53 AM 41.0 °F - 39.0 °F 93% 29.90 in 6.0 mi Calm Calm - N/A   Clear
2:53 AM 45.0 °F 43.5 °F 39.9 °F 82% 29.89 in 9.0 mi NNE 3.5 mph - N/A   Overcast
3:53 AM 46.9 °F - 42.1 °F 83% 29.88 in 10.0 mi Calm Calm - N/A   Overcast
4:53 AM 48.0 °F - 42.1 °F 80% 29.82 in 10.0 mi NE 6.9 mph - N/A   Overcast
5:53 AM 46.9 °F - 41.0 °F 80% 29.84 in 6.0 mi NE 6.9 mph - 0.01 in Rain Light Rain
6:53 AM 46.0 °F 40.6 °F 39.9 °F 79% 29.80 in 5.0 mi NE 11.5 mph - 0.08 in Rain Rain
7:53 AM 45.0 °F 39.3 °F 42.1 °F 90% 29.79 in 4.0 mi NE 11.5 mph - 0.11 in Rain Rain
8:17 AM 44.6 °F 38.8 °F 42.8 °F 93% 29.80 in 2.0 mi NE 11.5 mph - 0.11 in Rain Heavy Rain
8:26 AM 44.6 °F 39.2 °F 42.8 °F 93% 29.78 in 1.8 mi NE 10.4 mph - 0.16 in Rain Heavy Rain
8:33 AM 44.6 °F 38.8 °F 42.8 °F 93% 29.78 in 2.0 mi NE 11.5 mph - 0.19 in Rain Heavy Rain
8:53 AM 46.0 °F 40.6 °F 44.1 °F 93% 29.78 in 3.0 mi NE 11.5 mph - 0.26 in Rain Rain
9:12 AM 46.4 °F 40.4 °F 44.6 °F 93% 29.77 in 2.5 mi NE 13.8 mph - 0.08 in Rain Heavy Rain
9:20 AM 46.4 °F 40.7 °F 44.6 °F 93% 29.76 in 2.0 mi ENE 12.7 mph - 0.12 in Rain Heavy Rain
9:45 AM 48.2 °F - 44.6 °F 87% 29.78 in 2.5 mi NE 10.4 mph - 0.24 in Rain Heavy Rain
9:53 AM 46.9 °F - 46.0 °F 97% 29.77 in 1.8 mi NE 10.4 mph - 0.29 in Rain Heavy Rain
10:09 AM 48.2 °F - 44.6 °F 87% 29.74 in 1.5 mi ENE 16.1 mph 23.0 mph 0.15 in Rain Heavy Rain
10:20 AM 48.2 °F - 46.4 °F 93% 29.74 in 2.5 mi ENE 12.7 mph 28.8 mph 0.20 in Rain Rain
10:27 AM 48.2 °F - 46.4 °F 93% 29.73 in 3.0 mi ENE 12.7 mph 20.7 mph 0.24 in Rain Rain
10:30 AM 48.2 °F - 46.4 °F 93% 29.71 in 2.5 mi ENE 12.7 mph 20.7 mph 0.25 in Rain Heavy Rain
10:41 AM 48.2 °F - 46.4 °F 93% 29.65 in 4.0 mi East 23.0 mph 35.7 mph 0.29 in Rain Rain
10:53 AM 50.0 °F - 48.0 °F 93% 29.56 in 4.0 mi ESE 29.9 mph 42.6 mph 0.31 in Rain Light Rain
11:15 AM 51.8 °F - 50.0 °F 94% 29.59 in 6.0 mi East 21.9 mph 34.5 mph 0.02 in Rain Light Rain
11:53 AM 55.0 °F - 52.0 °F 89% 29.60 in 10.0 mi East 20.7 mph 28.8 mph 0.03 in   Overcast
12:53 PM 57.0 °F - 54.0 °F 89% 29.54 in 7.0 mi ENE 13.8 mph 21.9 mph 0.01 in   Overcast
1:53 PM 57.0 °F - 55.0 °F 93% 29.50 in 5.0 mi NE 19.6 mph 28.8 mph N/A   Overcast
2:53 PM 57.0 °F - 54.0 °F 89% 29.49 in 5.0 mi East 10.4 mph - 0.00 in Rain Light Rain
3:45 PM 57.2 °F - 55.4 °F 94% 29.46 in 2.5 mi ENE 9.2 mph - 0.02 in Rain Light Rain
3:53 PM 57.0 °F - 55.0 °F 93% 29.46 in 3.0 mi East 9.2 mph - 0.02 in Rain Light Rain
4:00 PM 57.2 °F - 55.4 °F 94% 29.45 in 4.0 mi ENE 9.2 mph - 0.00 in Rain Light Rain
4:53 PM 57.0 °F - 55.0 °F 93% 29.43 in 4.0 mi East 8.1 mph - 0.01 in Rain Light Rain
5:26 PM 57.2 °F - 55.4 °F 94% 29.42 in 5.0 mi ENE 9.2 mph - 0.00 in   Overcast
5:38 PM 57.2 °F - 55.4 °F 94% 29.43 in 6.0 mi NNW 10.4 mph - 0.00 in   Overcast
5:53 PM 57.9 °F - 55.9 °F 93% 29.43 in 3.0 mi NNW 9.2 mph - 0.00 in Rain Light Rain
6:53 PM 50.0 °F - 48.0 °F 93% 29.49 in 10.0 mi NNW 16.1 mph 24.2 mph 0.00 in   Overcast
7:53 PM 46.9 °F - 45.0 °F 93% 29.52 in 10.0 mi North 11.5 mph 20.7 mph N/A   Overcast
8:53 PM 45.0 °F 39.7 °F 43.0 °F 93% 29.56 in 6.0 mi NNW 10.4 mph 19.6 mph N/A   Overcast
9:53 PM 44.1 °F 39.5 °F 42.1 °F 93% 29.58 in 7.0 mi North 8.1 mph - N/A   Overcast
10:53 PM 44.1 °F 40.1 °F 41.0 °F 89% 29.61 in 10.0 mi North 6.9 mph - N/A   Overcast
11:53 PM 43.0 °F 41.3 °F 41.0 °F 93% 29.60 in 7.0 mi North 3.5 mph - N/A   Overcast